[[{"header":{"parameterUnit":"m.s-1","parameterCategory":2,"la1":30.2991,"la2":30.254,"lo1":-89.0895,"lo2":-89.0444,"dy":0.0017,"dx":0.0017,"nx":28,"ny":28,"refTime":"2024-07-18T21:00:00:Z","depth":"0","parameterNumber":2,"parameterNumberName":"U-component_of_CURRENTS"},"data":[0,0,0,0,0,0,0,0,0,0,0,0,0,0,0,0,0,0,0,0,0,0,0,0,0,0,0,0,0,0,0,0,0,0,0,0,0,0,0,0,0,0,0,0,0,0,0,0,0,0,0,0,0,0,0,0,0,0,-0.2359,-0.2356,0,-0.2188,-0.2187,-0.2186,-0.2345,-0.2351,-0.2356,-0.2361,-0.2797,-0.2803,-0.281,0,0,0,0,0,0,0,0,0,0,0,0,0,-0.281,-0.2802,-0.2359,-0.2356,-0.2352,-0.2188,-0.2187,-0.2186,-0.2344,-0.2351,-0.2357,-0.2364,-0.2795,-0.2802,-0.281,0,0,0,0,0,0,0,0,0,0,0,0,0,-0.2635,-0.2799,-0.2359,-0.2403,-0.2405,-0.2189,-0.2187,-0.2186,-0.2343,-0.2351,-0.2359,-0.2367,-0.2792,-0.2802,-0.2811,-0.2712,0,0,-0.2842,-0.2846,0,0,0,0,0,0,0,0,-0.2645,-0.262,-0.24,-0.24,-0.2401,-0.2286,-0.2505,-0.2388,-0.2341,-0.2378,-0.2361,-0.2371,-0.2669,-0.2689,-0.2647,-0.2732,-0.2751,-0.2843,-0.2849,-0.2853,-0.2856,0,0,0,0,0,0,0,-0.2657,-0.2627,-0.2303,-0.2396,-0.2396,-0.2427,-0.2412,-0.2482,-0.2501,-0.2376,-0.2384,-0.2344,-0.2677,-0.2636,-0.266,-0.2757,-0.2842,-0.2851,-0.2857,-0.2861,-0.2826,-0.2819,0,0,0,0,0,0,-0.2644,-0.2637,-0.2308,-0.2297,-0.2532,-0.2411,-0.2396,-0.2324,-0.2487,-0.2511,-0.2338,-0.2352,-0.2615,-0.2648,-0.2677,-0.2618,-0.2853,-0.2862,-0.2868,-0.2832,-0.2824,-0.2817,0,0,0,0,0,0,-0.2654,-0.2614,-0.2315,-0.2458,-0.2421,-0.2394,-0.2313,-0.2316,-0.2311,-0.2449,-0.249,-0.2333,-0.2623,-0.2663,-0.272,-0.2637,-0.2867,-0.2876,-0.284,-0.283,-0.282,-0.2473,0,0,0,0,0,0,-0.2667,-0.2618,-0.2562,-0.2455,-0.2411,-0.2201,-0.2304,-0.2307,-0.2266,-0.2285,-0.2457,-0.2503,-0.2632,-0.2703,-0.2729,-0.2655,-0.2883,-0.2849,-0.2836,-0.2824,-0.2493,-0.2452,-0.2417,0,0,0,0,0,-0.2683,-0.2571,-0.2559,-0.252,-0.2334,-0.2196,-0.2178,-0.2197,-0.2258,-0.2229,-0.2323,-0.25,-0.2641,-0.2704,-0.2737,-0.2664,-0.2856,-0.284,-0.2825,-0.251,-0.246,-0.2418,0,0,0,0,0,0,-0.2734,-0.2571,-0.2559,-0.2403,-0.2313,-0.2221,-0.2164,-0.2174,-0.2205,-0.2243,-0.2418,-0.2464,-0.2478,-0.2594,-0.266,-0.2605,-0.2773,-0.2763,-0.2522,-0.2477,-0.244,-0.2492,-0.2892,0,0,0,0,0,-0.2705,-0.2582,-0.2457,-0.2329,-0.2278,-0.2218,-0.2164,-0.2163,-0.216,-0.218,-0.2284,-0.2377,-0.2414,-0.2474,-0.2536,-0.2512,-0.2581,-0.2479,-0.244,-0.2408,-0.2463,-0.2448,-0.2415,-0.2766,-0.2766,-0.2766,0,0,-0.2685,-0.2574,-0.2507,-0.2332,-0.2262,-0.2159,-0.2211,-0.2102,-0.2043,-0.2226,-0.2205,-0.2258,-0.2374,-0.2335,-0.2353,-0.2445,-0.2305,-0.2388,-0.236,-0.2436,-0.2428,-0.2395,-0.2366,-0.2755,-0.2757,-0.2759,0,0,-0.2573,-0.2485,-0.2355,-0.2276,-0.2139,-0.2094,-0.2064,-0.1967,-0.1966,-0.19,-0.2004,-0.1997,-0.2076,-0.211,-0.2146,-0.1931,-0.2097,-0.1945,-0.1818,-0.1795,-0.1769,-0.1747,-0.1638,-0.1609,-0.1935,-0.1934,-0.1934,0,-0.2559,-0.2376,-0.2301,-0.2174,-0.2106,-0.2069,-0.1958,-0.1903,-0.1846,-0.1836,-0.1879,-0.1884,-0.1962,-0.1923,-0.183,-0.1853,-0.1857,-0.1983,-0.1749,-0.173,-0.1714,-0.161,-0.1584,-0.1916,-0.1918,-0.192,-0.1921,0,-0.2357,-0.2238,-0.2153,-0.1991,-0.192,-0.1799,-0.1729,-0.1676,-0.1662,-0.1627,-0.1573,-0.1599,-0.1643,-0.1589,-0.1653,-0.155,-0.1583,-0.1692,-0.1876,-0.1659,-0.1559,-0.1538,-0.1889,-0.1896,-0.1901,-0.1906,0,0,-0.2248,-0.2051,-0.2025,-0.1975,-0.182,-0.1752,-0.1639,-0.1536,-0.1504,-0.1422,-0.1371,-0.1311,-0.1353,-0.1393,-0.1429,-0.1378,-0.1162,-0.1475,-0.1483,-0.1384,-0.1048,-0.0832,-0.079,-0.1245,-0.1243,-0.1241,-0.0971,0,-0.2114,-0.1901,-0.1825,-0.168,-0.159,-0.1553,-0.147,-0.1399,-0.135,-0.1294,-0.1263,-0.1231,-0.127,-0.1263,-0.1211,-0.1218,-0.1118,-0.1223,-0.1267,-0.1267,-0.1119,-0.0763,-0.0602,-0.0332,-0.0952,-0.0949,-0.0946,0,-0.1928,-0.1833,-0.1663,-0.158,-0.1539,-0.1464,-0.139,-0.131,-0.1228,-0.119,-0.1145,-0.1152,-0.1052,-0.1122,-0.1005,-0.1079,-0.1042,-0.1016,-0.1008,-0.0955,-0.1016,-0.068,-0.0273,-0.0302,-0.0916,-0.0918,-0.0921,0,-0.1901,-0.1725,-0.1614,-0.1569,-0.1454,-0.1412,-0.1367,-0.1288,-0.1188,-0.1141,-0.103,-0.1022,-0.0906,-0.0933,-0.0831,-0.0939,-0.0674,-0.0836,-0.0584,-0.0567,-0.0519,-0.0501,-0.0185,-0.0739,-0.074,-0.0741,-0.0741,0,-0.1765,-0.1678,-0.1614,-0.1551,-0.1464,-0.1425,-0.1308,-0.1271,-0.1145,-0.0972,-0.0994,-0.0794,-0.0851,-0.0698,-0.0749,-0.0514,-0.06,-0.0486,-0.0467,-0.0367,-0.034,-0.0452,-0.0568,-0.073,-0.0733,-0.0735,-0.0736,0,-0.1687,-0.1624,-0.153,-0.1462,-0.1426,-0.1391,-0.1214,-0.11,-0.1026,-0.0788,-0.0738,-0.0541,-0.0311,-0.0305,-0.0235,-0.027,-0.0174,-0.0105,0.0085,0.0123,0.0276,0.0173,0.0274,0.0223,0.0192,0.0199,0.0205,0,-0.1588,-0.1529,-0.1478,-0.1395,-0.134,-0.1251,-0.1114,-0.1042,-0.0877,-0.0573,-0.0402,-0.0107,0.0156,0.04,0.0427,0.0477,0.0234,0.0589,0.0398,0.0413,0.0305,0.0064,-0.0012,0.0654,0.0663,0.067,0.0676,0,-0.1442,-0.1456,-0.1394,-0.122,-0.1099,-0.0948,-0.077,-0.0639,-0.048,-0.0279,0.008,0.0289,0.0681,0.0901,0.1023,0.1002,0.055,0.075,0.0681,0.0673,0.0503,0.0422,0.0384,0.0744,0.0737,0.0732,0.0728,0.0726,-0.1337,-0.126,-0.1153,-0.098,-0.0842,-0.0607,-0.0457,-0.0271,-0.0028,0.0264,0.0411,0.0694,0.1034,0.1306,0.1334,0.1445,0.1156,0.1306,0.1187,0.0945,0.0882,0.1076,0.1486,0.1484,0.1482,0.148,0.1478,0,-0.1109,-0.0996,-0.0847,-0.0628,-0.0406,-0.0398,-0.0147,-0.0002,0.0266,0.0447,0.0682,0.0992,0.1374,0.1555,0.1829,0.1804,0.1553,0.1711,0.136,0.1257,0.1425,0.1434,0.1956,0.1956,0.1956,0.1956,0.1956,0.1956,-0.0955,-0.0728,-0.0633,-0.0223,-0.0077,0.0204,0.033,0.0447,0.0552,0.0765,0.0865,0.0936,0.1206,0.1707,0.193,0.1918,0.1579,0.1643,0.1392,0.1494,0.1441,0.1391,0.1379,0.1881,0.188,0.1206,0.1201,0.1198]},{"header":{"parameterUnit":"m.s-1","parameterCategory":2,"la1":30.2991,"la2":30.254,"lo1":-89.0895,"lo2":-89.0444,"dy":0.0017,"dx":0.0017,"nx":28,"ny":28,"refTime":"2024-07-18T21:00:00:Z","depth":"0","parameterNumber":3,"parameterNumberName":"V-component_of_CURRENTS"},"data":[0,0,0,0,0,0,0,0,0,0,0,0,0,0,0,0,0,0,0,0,0,0,0,0,0,0,0,0,0,0,0,0,0,0,0,0,0,0,0,0,0,0,0,0,0,0,0,0,0,0,0,0,0,0,0,0,0,0,-0.032,-0.0319,0,-0.0201,-0.02,-0.0198,-0.0054,-0.0052,-0.005,-0.0048,0.0223,0.0228,0.0233,0,0,0,0,0,0,0,0,0,0,0,0,0,-0.0554,-0.0549,-0.032,-0.0318,-0.0317,-0.0202,-0.02,-0.0198,-0.0054,-0.0052,-0.0049,-0.0047,0.0221,0.0227,0.0233,0,0,0,0,0,0,0,0,0,0,0,0,0,-0.0443,-0.0548,-0.032,-0.0233,-0.0224,-0.0202,-0.02,-0.0197,-0.0055,-0.0052,-0.0048,-0.0046,0.0219,0.0227,0.0234,0.0221,0,0,0.0258,0.0262,0,0,0,0,0,0,0,0,-0.0449,-0.0434,-0.0247,-0.0239,-0.0229,-0.0141,-0.0183,-0.0051,-0.0055,-0.0117,-0.0048,-0.0044,0.0111,0.0128,0.0145,0.0234,0.0245,0.0259,0.0264,0.0267,0.027,0,0,0,0,0,0,0,-0.0457,-0.0439,-0.0271,-0.0246,-0.0235,-0.0246,-0.0225,-0.0159,-0.0017,-0.0111,-0.0101,-0.0092,0.0118,0.0136,0.0152,0.0249,0.0259,0.0266,0.0271,0.0274,0.0436,0.0435,0,0,0,0,0,0,-0.0472,-0.0446,-0.0274,-0.0267,-0.0336,-0.0244,-0.022,-0.0171,-0.0021,0.0003,-0.0095,-0.0086,0.0121,0.0143,0.0163,0.022,0.0267,0.0275,0.0279,0.0436,0.0435,0.0435,0,0,0,0,0,0,-0.0476,-0.0456,-0.0279,-0.0359,-0.0337,-0.0242,-0.0188,-0.017,-0.0142,-0.0011,0.0018,-0.0084,0.0125,0.0152,0.0251,0.0229,0.0278,0.0285,0.0437,0.0436,0.0435,0.0294,0,0,0,0,0,0,-0.0483,-0.0457,-0.0434,-0.0358,-0.0333,-0.0252,-0.0191,-0.017,-0.0143,-0.0129,0.0007,0.0035,0.0129,0.0238,0.0258,0.0241,0.0292,0.0437,0.0436,0.0435,0.0299,0.0288,0.0279,0,0,0,0,0,-0.0491,-0.0456,-0.0432,-0.0413,-0.0299,-0.0253,-0.0241,-0.0164,-0.0146,-0.013,-0.003,0.0032,0.0247,0.0244,0.0268,0.0253,0.0438,0.0436,0.0435,0.0303,0.029,0.0279,0,0,0,0,0,0,-0.0549,-0.0437,-0.0408,-0.0342,-0.0303,-0.0229,-0.0211,-0.0183,-0.0101,-0.0082,0.0034,0.007,0.0147,0.0216,0.021,0.0297,0.0347,0.0351,0.0239,0.0227,0.0218,0.0184,0.0298,0,0,0,0,0,-0.0556,-0.0492,-0.0418,-0.0373,-0.0353,-0.0297,-0.0275,-0.0231,-0.0153,-0.0116,-0.0029,0.0068,0.0154,0.0205,0.0294,0.0337,0.0383,0.0341,0.033,0.0321,0.0311,0.0329,0.0318,0.0432,0.0432,0.0432,0,0,-0.0572,-0.0503,-0.0469,-0.0382,-0.0344,-0.0317,-0.0273,-0.024,-0.0221,-0.01,-0.0041,0.004,0.0159,0.0224,0.0262,0.0284,0.0322,0.032,0.0311,0.0306,0.0326,0.0315,0.0305,0.0431,0.0431,0.0431,0,0,-0.058,-0.0509,-0.0468,-0.0432,-0.0378,-0.0342,-0.0341,-0.0279,-0.0248,-0.0189,-0.0102,-0.0043,0.0093,0.0156,0.0211,0.0191,0.027,0.0221,0.0143,0.0159,0.0149,0.0141,0.0212,0.0211,0.0213,0.0212,0.0212,0,-0.0612,-0.0535,-0.0462,-0.0427,-0.0406,-0.0359,-0.0345,-0.0314,-0.0233,-0.0217,-0.0172,-0.0033,0.0056,0.0112,0.0114,0.0164,0.0209,0.0175,0.0142,0.0135,0.0129,0.0203,0.0204,0.0205,0.0206,0.0207,0.0207,0,-0.0592,-0.0542,-0.0524,-0.045,-0.0424,-0.0406,-0.0358,-0.0341,-0.031,-0.0277,-0.0225,-0.0126,-0.0037,-0.0021,0.0052,0.0045,0.0106,0.0125,0.0161,0.0108,0.0192,0.0195,0.0195,0.0198,0.02,0.0202,0,0,-0.0635,-0.0529,-0.0528,-0.0489,-0.0437,-0.0401,-0.0397,-0.0368,-0.0325,-0.0312,-0.0267,-0.0208,-0.0177,-0.0116,-0.0053,-0.0057,-0.0055,0.0007,0.0011,0.0059,0.0022,0.0098,0.0111,-0.0047,-0.0048,-0.0049,0.0106,0,-0.0653,-0.0592,-0.0542,-0.05,-0.0464,-0.0428,-0.0398,-0.0369,-0.0322,-0.0259,-0.0259,-0.0151,-0.0205,-0.0119,-0.0169,-0.0039,-0.0057,-0.0096,0.0084,0.009,0.0147,0.0112,0.0183,0.0328,0.011,0.0111,0.0111,0,-0.0657,-0.0606,-0.0576,-0.0477,-0.0458,-0.0425,-0.0356,-0.032,-0.0261,-0.0208,-0.0208,-0.0145,-0.0138,-0.0147,-0.0118,-0.0135,-0.0089,-0.0036,-0.0028,0.009,0.017,0.0344,0.0343,0.0259,0.0117,0.0117,0.0116,0,-0.0706,-0.0625,-0.0597,-0.0572,-0.0468,-0.0443,-0.0386,-0.0316,-0.0212,-0.0152,-0.0021,-0.0091,0.004,-0.0041,0.0024,-0.0022,0.0093,0.0061,0.0149,0.0159,0.0279,0.0299,0.0198,0.0048,0.0047,0.0047,0.0047,0,-0.0732,-0.0697,-0.06,-0.058,-0.0469,-0.0428,-0.0295,-0.0241,-0.0107,0.0067,0.0022,0.0202,0.0082,0.014,0.0066,0.0135,0.0116,0.0134,0.0187,0.0237,0.0251,0.0235,0.0176,0.0053,0.0052,0.005,0.0049,0,-0.0765,-0.0728,-0.0649,-0.0545,-0.0478,-0.0395,-0.0155,-0.0028,0.0069,0.0306,0.0361,0.0485,0.0561,0.0433,0.0435,0.0325,0.0321,0.0337,0.0426,0.0482,0.0435,0.0368,0.0381,0.0471,0.0437,0.044,0.0442,0,-0.0762,-0.0741,-0.0596,-0.0465,-0.0394,-0.0231,-0.0069,0.0054,0.0223,0.0522,0.0672,0.0827,0.0978,0.0967,0.0769,0.0625,0.052,0.0625,0.0503,0.0434,0.0399,0.0338,0.0409,0.0633,0.0637,0.064,0.0642,0,-0.0715,-0.0684,-0.0579,-0.0326,-0.014,0.0071,0.0293,0.0436,0.0617,0.0812,0.1147,0.1295,0.1337,0.1271,0.1056,0.0936,0.0614,0.0683,0.0577,0.0503,0.0467,0.0584,0.0561,0.0668,0.0665,0.0664,0.0662,0.0661,-0.0607,-0.0489,-0.0316,-0.0051,0.0136,0.0389,0.0568,0.0762,0.1017,0.1302,0.1471,0.1712,0.1645,0.1383,0.1182,0.0876,0.0861,0.078,0.0705,0.0648,0.0707,0.0757,0.0932,0.0931,0.093,0.0929,0.0928,0,-0.0317,-0.0178,0.0008,0.0333,0.0555,0.059,0.0865,0.1006,0.1258,0.1481,0.1747,0.1968,0.177,0.1504,0.1118,0.0915,0.0835,0.0799,0.0689,0.0766,0.0788,0.0764,0.0952,0.0952,0.0952,0.0952,0.0952,0.0953,-0.0121,0.0171,0.0266,0.0712,0.0876,0.1144,0.1271,0.1382,0.1525,0.1817,0.2026,0.2215,0.2085,0.1339,0.0866,0.079,0.0714,0.0655,0.065,0.0568,0.0558,0.0548,0.0507,0.0638,0.0638,0.0704,0.0704,0.0704]}],[{"header":{"parameterUnit":"m.s-1","parameterCategory":2,"la1":30.2991,"la2":30.254,"lo1":-89.0895,"lo2":-89.0444,"dy":0.0017,"dx":0.0017,"nx":28,"ny":28,"refTime":"2024-07-18T21:00:00:Z","depth":"2","parameterNumber":2,"parameterNumberName":"U-component_of_CURRENTS"},"data":[0,0,0,0,0,0,0,0,0,0,0,0,0,0,0,0,0,0,0,0,0,0,0,0,0,0,0,0,0,0,0,0,0,0,0,0,0,0,0,0,0,0,0,0,0,0,0,0,0,0,0,0,0,0,0,0,0,0,-0.1156,-0.1158,0,-0.1307,-0.1309,-0.1311,-0.1417,-0.1417,-0.1418,-0.1419,-0.1486,-0.1487,-0.1488,0,0,0,0,0,0,0,0,0,0,0,0,0,-0.1058,-0.1059,-0.1156,-0.1158,-0.116,-0.1307,-0.1309,-0.1311,-0.1416,-0.1417,-0.1418,-0.1419,-0.1486,-0.1487,-0.1488,0,0,0,0,0,0,0,0,0,0,0,0,0,-0.1144,-0.1059,-0.1156,-0.123,-0.1238,-0.1306,-0.1309,-0.1312,-0.1416,-0.1417,-0.1419,-0.142,-0.1486,-0.1487,-0.1489,-0.1475,0,0,-0.1494,-0.1494,0,0,0,0,0,0,0,0,-0.1139,-0.1148,-0.1217,-0.1225,-0.1234,-0.1344,-0.13,-0.1362,-0.1416,-0.1349,-0.1419,-0.142,-0.143,-0.1436,-0.1464,-0.1478,-0.1481,-0.1494,-0.1495,-0.1495,-0.1496,0,0,0,0,0,0,0,-0.1133,-0.1143,-0.1216,-0.1219,-0.1229,-0.1289,-0.1302,-0.1313,-0.138,-0.1355,-0.1363,-0.1379,-0.1434,-0.1462,-0.1466,-0.1482,-0.1494,-0.1495,-0.1496,-0.1497,-0.1451,-0.1449,0,0,0,0,0,0,-0.1107,-0.1136,-0.1212,-0.1221,-0.1188,-0.129,-0.1304,-0.1308,-0.1382,-0.1395,-0.1377,-0.1383,-0.1459,-0.1464,-0.1468,-0.1432,-0.1495,-0.1497,-0.1498,-0.1453,-0.1451,-0.1448,0,0,0,0,0,0,-0.1104,-0.1112,-0.1206,-0.1183,-0.1199,-0.1289,-0.1293,-0.131,-0.1352,-0.14,-0.1411,-0.1403,-0.146,-0.1466,-0.1484,-0.1436,-0.1498,-0.1499,-0.1456,-0.1453,-0.145,-0.1375,0,0,0,0,0,0,-0.11,-0.1109,-0.1113,-0.118,-0.1199,-0.1239,-0.1293,-0.1312,-0.1358,-0.1367,-0.1424,-0.1432,-0.1461,-0.1481,-0.1486,-0.144,-0.15,-0.1459,-0.1454,-0.1451,-0.138,-0.1369,-0.136,0,0,0,0,0,-0.1096,-0.1096,-0.1111,-0.1122,-0.1197,-0.1238,-0.1253,-0.1323,-0.1358,-0.1367,-0.141,-0.1431,-0.1457,-0.1482,-0.1487,-0.144,-0.1461,-0.1456,-0.1451,-0.1384,-0.1371,-0.136,0,0,0,0,0,0,-0.1051,-0.1109,-0.1127,-0.1143,-0.1181,-0.1256,-0.1279,-0.1321,-0.1366,-0.1377,-0.1425,-0.1434,-0.1423,-0.1442,-0.1469,-0.1411,-0.1452,-0.1448,-0.14,-0.1388,-0.1378,-0.1393,-0.1502,0,0,0,0,0,-0.1039,-0.1057,-0.1109,-0.1119,-0.1136,-0.1205,-0.1236,-0.1276,-0.1323,-0.1348,-0.1385,-0.1406,-0.1403,-0.1409,-0.1416,-0.1399,-0.1411,-0.1363,-0.1353,-0.1345,-0.1357,-0.1343,-0.1334,-0.1432,-0.1432,-0.1433,0,0,-0.1026,-0.1057,-0.107,-0.1112,-0.1151,-0.117,-0.1227,-0.1264,-0.1275,-0.1341,-0.1365,-0.1378,-0.1391,-0.137,-0.1364,-0.1385,-0.1313,-0.1339,-0.1332,-0.1349,-0.1337,-0.1328,-0.132,-0.1429,-0.143,-0.143,0,0,-0.1009,-0.103,-0.1044,-0.1069,-0.1118,-0.115,-0.1156,-0.122,-0.1243,-0.1254,-0.1296,-0.1292,-0.13,-0.1304,-0.1302,-0.124,-0.1262,-0.1224,-0.119,-0.1175,-0.1168,-0.1161,-0.1129,-0.1121,-0.1219,-0.1219,-0.1219,0,-0.0995,-0.1016,-0.1052,-0.1066,-0.109,-0.1134,-0.1149,-0.1165,-0.1225,-0.1238,-0.1243,-0.1256,-0.1261,-0.1244,-0.1216,-0.1218,-0.1217,-0.1237,-0.1164,-0.1159,-0.1154,-0.1123,-0.1114,-0.1215,-0.1215,-0.1216,-0.1216,0,-0.0991,-0.1008,-0.1014,-0.1044,-0.1062,-0.1081,-0.1103,-0.1117,-0.1134,-0.1156,-0.1145,-0.1154,-0.1169,-0.114,-0.116,-0.1119,-0.113,-0.1155,-0.12,-0.114,-0.111,-0.1103,-0.1209,-0.121,-0.1211,-0.1213,0,0,-0.0963,-0.1009,-0.1009,-0.1028,-0.1058,-0.1074,-0.1066,-0.1086,-0.1095,-0.1093,-0.11,-0.1063,-0.1085,-0.1085,-0.1097,-0.1074,-0.1011,-0.1097,-0.1099,-0.1076,-0.0968,-0.0887,-0.0872,-0.1032,-0.1031,-0.103,-0.0949,0,-0.0957,-0.0983,-0.1002,-0.1015,-0.1035,-0.1058,-0.1052,-0.1064,-0.1067,-0.1074,-0.1056,-0.1058,-0.1055,-0.1062,-0.1033,-0.1038,-0.0995,-0.103,-0.1023,-0.1022,-0.0967,-0.0862,-0.0838,-0.0758,-0.0943,-0.0942,-0.0941,0,-0.0951,-0.0974,-0.0994,-0.1026,-0.1034,-0.1035,-0.1051,-0.1053,-0.1053,-0.1056,-0.1048,-0.1055,-0.1027,-0.1028,-0.098,-0.1008,-0.0976,-0.0961,-0.0958,-0.0914,-0.0929,-0.0854,-0.0739,-0.0929,-0.093,-0.0931,-0.0932,0,-0.0935,-0.0967,-0.0986,-0.0997,-0.1029,-0.1034,-0.1043,-0.105,-0.1049,-0.1054,-0.106,-0.1036,-0.1027,-0.099,-0.0937,-0.0971,-0.0869,-0.0917,-0.0804,-0.0798,-0.0791,-0.0786,-0.0858,-0.0858,-0.0858,-0.0858,-0.0859,0,-0.0933,-0.0947,-0.098,-0.0993,-0.0996,-0.1026,-0.1023,-0.1033,-0.1042,-0.1045,-0.1056,-0.1045,-0.102,-0.0964,-0.0922,-0.0815,-0.0848,-0.0773,-0.0763,-0.0757,-0.075,-0.0929,-0.0939,-0.0855,-0.0856,-0.0857,-0.0857,0,-0.0916,-0.0945,-0.0958,-0.0987,-0.099,-0.0988,-0.0997,-0.0992,-0.1029,-0.1033,-0.1038,-0.1038,-0.097,-0.0904,-0.0829,-0.0786,-0.0702,-0.0651,-0.0626,-0.0613,-0.0652,-0.0659,-0.0544,-0.054,-0.0537,-0.0535,-0.0532,0,-0.0915,-0.0926,-0.0933,-0.0919,-0.0928,-0.0932,-0.0924,-0.0962,-0.0963,-0.1022,-0.1014,-0.0974,-0.092,-0.0756,-0.0655,-0.0527,-0.0576,-0.0444,-0.0497,-0.0614,-0.0616,-0.0628,-0.0638,-0.0452,-0.045,-0.0448,-0.0446,0,-0.0894,-0.0889,-0.0882,-0.0859,-0.0846,-0.084,-0.0846,-0.0847,-0.0908,-0.0921,-0.0925,-0.0899,-0.0782,-0.0616,-0.0448,-0.04,-0.0467,-0.0394,-0.0514,-0.0528,-0.0518,-0.0524,-0.0539,-0.0426,-0.0428,-0.043,-0.0431,-0.0432,-0.0848,-0.0818,-0.0794,-0.0766,-0.0752,-0.0736,-0.0712,-0.0733,-0.0727,-0.0733,-0.0777,-0.0693,-0.0659,-0.0354,-0.0275,-0.0218,-0.029,-0.0292,-0.0303,-0.0315,-0.0311,-0.0296,-0.0161,-0.0161,-0.0161,-0.0162,-0.0162,0,-0.0763,-0.0732,-0.0704,-0.066,-0.062,-0.0647,-0.0641,-0.0611,-0.0578,-0.0546,-0.052,-0.0406,-0.0271,-0.0214,-0.0091,-0.0068,-0.0129,-0.0068,-0.0154,-0.0173,-0.0191,-0.0185,0.0002,0.0003,0.0004,0.0005,0,0,-0.0711,-0.0642,-0.0626,-0.0534,-0.0512,-0.0445,-0.0428,-0.0401,-0.0349,-0.0267,-0.0189,-0.017,-0.0169,-0.0035,-0.0036,0.0026,-0.007,0.0022,-0.0117,-0.0235,-0.0251,-0.0334,-0.0348,0,0,0,0,0]},{"header":{"parameterUnit":"m.s-1","parameterCategory":2,"la1":30.2991,"la2":30.254,"lo1":-89.0895,"lo2":-89.0444,"dy":0.0017,"dx":0.0017,"nx":28,"ny":28,"refTime":"2024-07-18T21:00:00:Z","depth":"2","parameterNumber":3,"parameterNumberName":"V-component_of_CURRENTS"},"data":[0,0,0,0,0,0,0,0,0,0,0,0,0,0,0,0,0,0,0,0,0,0,0,0,0,0,0,0,0,0,0,0,0,0,0,0,0,0,0,0,0,0,0,0,0,0,0,0,0,0,0,0,0,0,0,0,0,0,-0.053,-0.0529,0,-0.0435,-0.0433,-0.0432,-0.035,-0.0349,-0.0349,-0.0348,-0.0188,-0.0184,-0.018,0,0,0,0,0,0,0,0,0,0,0,0,0,-0.0621,-0.062,-0.053,-0.0529,-0.0528,-0.0435,-0.0433,-0.0432,-0.035,-0.0349,-0.0349,-0.0348,-0.0189,-0.0184,-0.018,0,0,0,0,0,0,0,0,0,0,0,0,0,-0.0555,-0.0619,-0.053,-0.048,-0.0475,-0.0436,-0.0433,-0.0431,-0.035,-0.0349,-0.0349,-0.0348,-0.019,-0.0185,-0.0179,-0.0156,0,0,-0.0161,-0.0159,0,0,0,0,0,0,0,0,-0.0559,-0.0551,-0.0488,-0.0484,-0.0478,-0.0408,-0.0407,-0.0338,-0.035,-0.0392,-0.0348,-0.0348,-0.0259,-0.0248,-0.0225,-0.0149,-0.0142,-0.0161,-0.0157,-0.0155,-0.0153,0,0,0,0,0,0,0,-0.0563,-0.0554,-0.0487,-0.0488,-0.0482,-0.0457,-0.0446,-0.0393,-0.0325,-0.0388,-0.0383,-0.0381,-0.0255,-0.023,-0.022,-0.0139,-0.0161,-0.0156,-0.0152,-0.015,-0.003,-0.003,0,0,0,0,0,0,-0.0587,-0.0559,-0.049,-0.0484,-0.0524,-0.0456,-0.0444,-0.0427,-0.0327,-0.0313,-0.0382,-0.0378,-0.0241,-0.0227,-0.0214,-0.0165,-0.0155,-0.0149,-0.0146,-0.0029,-0.003,-0.003,0,0,0,0,0,0,-0.0589,-0.0581,-0.0494,-0.0525,-0.0512,-0.0456,-0.0437,-0.0426,-0.0402,-0.0324,-0.0308,-0.0372,-0.024,-0.0222,-0.0158,-0.0159,-0.0147,-0.0141,-0.0029,-0.0029,-0.003,-0.0078,0,0,0,0,0,0,-0.0592,-0.0582,-0.0574,-0.0526,-0.0512,-0.0472,-0.0438,-0.0424,-0.0405,-0.0398,-0.031,-0.0294,-0.0238,-0.0167,-0.0152,-0.0151,-0.0137,-0.0029,-0.0029,-0.003,-0.0076,-0.008,-0.0083,0,0,0,0,0,-0.0595,-0.0582,-0.0573,-0.0565,-0.0503,-0.0473,-0.0463,-0.0417,-0.0406,-0.0394,-0.033,-0.0297,-0.0161,-0.0161,-0.0144,-0.0142,-0.0028,-0.0029,-0.003,-0.0074,-0.0079,-0.0083,0,0,0,0,0,0,-0.0607,-0.0572,-0.0561,-0.0535,-0.0512,-0.0461,-0.0447,-0.0427,-0.0369,-0.0361,-0.0287,-0.0266,-0.0213,-0.0175,-0.0178,-0.0112,-0.0095,-0.0092,-0.0135,-0.0139,-0.0142,-0.0149,-0.0132,0,0,0,0,0,-0.0613,-0.0597,-0.0565,-0.0546,-0.0538,-0.0499,-0.0482,-0.0458,-0.0407,-0.0381,-0.0323,-0.0262,-0.0203,-0.0169,-0.0113,-0.0072,-0.0046,-0.0065,-0.0068,-0.0072,-0.0067,-0.0036,-0.0037,-0.0032,-0.0032,-0.0032,0,0,-0.0614,-0.0593,-0.0584,-0.0549,-0.0526,-0.0505,-0.0484,-0.0465,-0.0441,-0.0373,-0.0317,-0.0269,-0.0195,-0.0143,-0.0118,-0.0109,-0.0062,-0.0072,-0.0076,-0.0069,-0.0037,-0.0037,-0.0038,-0.0032,-0.0032,-0.0032,0,0,-0.061,-0.0592,-0.0579,-0.0563,-0.0541,-0.0516,-0.0519,-0.0478,-0.0452,-0.0405,-0.0349,-0.0303,-0.0218,-0.0163,-0.0124,-0.0119,-0.0083,-0.0112,-0.0129,-0.01,-0.01,-0.01,-0.008,-0.0078,-0.0114,-0.0114,-0.0114,0,-0.0612,-0.0588,-0.0572,-0.0556,-0.0543,-0.0526,-0.0511,-0.0482,-0.0425,-0.0403,-0.0395,-0.0279,-0.0226,-0.0153,-0.015,-0.0126,-0.0107,-0.0117,-0.0105,-0.0104,-0.0103,-0.0083,-0.0079,-0.0116,-0.0116,-0.0116,-0.0115,0,-0.0597,-0.058,-0.0574,-0.0546,-0.0531,-0.052,-0.0491,-0.0473,-0.0454,-0.0422,-0.0367,-0.0299,-0.0231,-0.0217,-0.0175,-0.0139,-0.0129,-0.0115,-0.0095,-0.0106,-0.0084,-0.008,-0.012,-0.0119,-0.0118,-0.0117,0,0,-0.0587,-0.0567,-0.0564,-0.056,-0.0528,-0.0519,-0.0487,-0.0453,-0.044,-0.0396,-0.0367,-0.0283,-0.0266,-0.0223,-0.0178,-0.0155,-0.0138,-0.0136,-0.0134,-0.0119,-0.0081,-0.0086,-0.0082,-0.0123,-0.0122,-0.0121,-0.0073,0,-0.0578,-0.0564,-0.0545,-0.0531,-0.0524,-0.0502,-0.0477,-0.0448,-0.0423,-0.0394,-0.0341,-0.0296,-0.0262,-0.0242,-0.0209,-0.0149,-0.0127,-0.0153,-0.0069,-0.0067,-0.0072,-0.0077,-0.0125,-0.0087,-0.0068,-0.0068,-0.0067,0,-0.0564,-0.0559,-0.0549,-0.0539,-0.0533,-0.052,-0.0496,-0.0473,-0.0427,-0.0409,-0.0361,-0.0322,-0.0261,-0.0251,-0.0155,-0.0174,-0.0131,-0.0096,-0.0093,-0.0076,-0.0064,-0.007,-0.0079,-0.0059,-0.006,-0.006,-0.0061,0,-0.0582,-0.0561,-0.0561,-0.0555,-0.0535,-0.0528,-0.0516,-0.0479,-0.047,-0.0424,-0.0414,-0.0335,-0.0289,-0.0235,-0.0142,-0.0155,-0.0048,-0.0056,-0.0021,-0.0021,-0.0033,-0.0036,-0.0002,-0.0002,-0.0002,-0.0002,-0.0002,0,-0.0582,-0.0582,-0.0576,-0.0579,-0.0584,-0.0558,-0.0558,-0.0535,-0.0508,-0.0487,-0.0429,-0.0387,-0.0283,-0.0202,-0.0147,-0.0058,-0.0045,-0.0022,-0.0007,-0.0053,-0.0058,-0.0006,-0.0007,-0.0,-0.0,-0.0001,-0.0001,0,-0.0604,-0.0596,-0.0604,-0.0597,-0.0597,-0.0605,-0.0601,-0.0599,-0.0567,-0.0538,-0.0525,-0.0416,-0.0304,-0.0204,-0.0088,-0.0051,0.0018,0.0048,-0.0016,-0.001,0.0018,0.0013,0.0062,0.0062,0.0062,0.0062,0.0062,0,-0.0612,-0.0621,-0.0633,-0.0646,-0.0646,-0.0655,-0.0658,-0.0635,-0.0629,-0.0545,-0.0529,-0.0408,-0.0322,-0.016,-0.006,0.003,0.0055,0.003,-0.0009,0.0015,0.0025,0.0021,0.0016,-0.0047,-0.0048,-0.0049,-0.0049,0,-0.0637,-0.0647,-0.0661,-0.0689,-0.0702,-0.0711,-0.0712,-0.0714,-0.0662,-0.063,-0.0541,-0.0472,-0.0297,-0.0179,-0.0048,-0.002,0.0003,0.0018,0.0079,-0.0059,-0.0084,-0.0075,-0.0077,-0.0055,-0.0054,-0.0054,-0.0053,-0.0053,-0.0662,-0.0685,-0.0709,-0.0735,-0.0746,-0.0751,-0.075,-0.0729,-0.0708,-0.0615,-0.0556,-0.0422,-0.0321,-0.0131,-0.0053,0.0014,-0.0012,-0.0023,-0.0022,-0.0021,-0.0045,-0.0069,-0.0041,-0.0041,-0.004,-0.004,-0.0039,0,-0.0704,-0.0726,-0.075,-0.0777,-0.0785,-0.0783,-0.0771,-0.0745,-0.0696,-0.0592,-0.0513,-0.0377,-0.0273,-0.0137,-0.004,-0.0016,-0.0033,-0.0016,-0.0039,-0.0037,-0.0035,-0.0059,-0.0059,-0.0058,-0.0057,-0.0056,0,0,-0.0731,-0.0771,-0.0782,-0.0803,-0.081,-0.0803,-0.0786,-0.0726,-0.065,-0.0524,-0.0412,-0.0343,-0.0233,-0.0152,-0.0126,-0.0064,-0.0062,-0.008,-0.0087,-0.0123,-0.0119,-0.0081,-0.0122,0,0,0,0,0]}],[{"header":{"parameterUnit":"m.s-1","parameterCategory":2,"la1":30.2991,"la2":30.254,"lo1":-89.0895,"lo2":-89.0444,"dy":0.0017,"dx":0.0017,"nx":28,"ny":28,"refTime":"2024-07-18T21:00:00:Z","depth":"4","parameterNumber":2,"parameterNumberName":"U-component_of_CURRENTS"},"data":[0,0,0,0,0,0,0,0,0,0,0,0,0,0,0,0,0,0,0,0,0,0,0,0,0,0,0,0,0,0,0,0,0,0,0,0,0,0,0,0,0,0,0,0,0,0,0,0,0,0,0,0,0,0,0,0,0,0,-0.0751,-0.0751,0,-0.0774,-0.0774,-0.0774,-0.0804,-0.0805,-0.0805,-0.0806,-0.083,-0.083,-0.083,0,0,0,0,0,0,0,0,0,0,0,0,0,-0.0681,-0.0683,-0.0751,-0.0751,-0.0752,-0.0774,-0.0774,-0.0774,-0.0804,-0.0805,-0.0805,-0.0806,-0.083,-0.083,-0.083,0,0,0,0,0,0,0,0,0,0,0,0,0,-0.0707,-0.0683,-0.0751,-0.077,-0.0772,-0.0774,-0.0774,-0.0774,-0.0804,-0.0805,-0.0806,-0.0806,-0.083,-0.083,-0.083,-0.0812,0,0,-0.083,-0.083,0,0,0,0,0,0,0,0,-0.0706,-0.071,-0.0767,-0.0769,-0.0771,-0.0788,-0.0758,-0.0787,-0.0803,-0.079,-0.0806,-0.0807,-0.0816,-0.0817,-0.0818,-0.0813,-0.0814,-0.083,-0.083,-0.083,-0.083,0,0,0,0,0,0,0,-0.0704,-0.0709,-0.0759,-0.0767,-0.077,-0.076,-0.0765,-0.0764,-0.0797,-0.0792,-0.0794,-0.0799,-0.0817,-0.0818,-0.0819,-0.0815,-0.083,-0.083,-0.083,-0.083,-0.0826,-0.0826,0,0,0,0,0,0,-0.0706,-0.0707,-0.0758,-0.0759,-0.0742,-0.0761,-0.0767,-0.0781,-0.0797,-0.0801,-0.0798,-0.08,-0.0817,-0.0818,-0.082,-0.0836,-0.083,-0.083,-0.0831,-0.0827,-0.0826,-0.0826,0,0,0,0,0,0,-0.0705,-0.0711,-0.0757,-0.0734,-0.074,-0.0762,-0.0777,-0.0781,-0.0798,-0.0802,-0.0806,-0.0813,-0.0818,-0.0819,-0.0835,-0.0836,-0.0831,-0.0831,-0.0827,-0.0826,-0.0826,-0.0845,0,0,0,0,0,0,-0.0703,-0.071,-0.0724,-0.0735,-0.0741,-0.0762,-0.0776,-0.0781,-0.0799,-0.0802,-0.0816,-0.0818,-0.0819,-0.0835,-0.0835,-0.0836,-0.0831,-0.0827,-0.0827,-0.0826,-0.0845,-0.0846,-0.0846,0,0,0,0,0,-0.07,-0.0717,-0.0725,-0.0731,-0.0759,-0.0762,-0.0764,-0.0781,-0.0799,-0.0801,-0.082,-0.0819,-0.0833,-0.0835,-0.0836,-0.0836,-0.0827,-0.0827,-0.0826,-0.0844,-0.0845,-0.0846,0,0,0,0,0,0,-0.0693,-0.0722,-0.0731,-0.0756,-0.0759,-0.0767,-0.0779,-0.0788,-0.0803,-0.0816,-0.0822,-0.0825,-0.0836,-0.0832,-0.0835,-0.0832,-0.0827,-0.0826,-0.084,-0.0841,-0.0842,-0.0846,-0.0831,0,0,0,0,0,-0.0697,-0.0719,-0.0733,-0.075,-0.0759,-0.077,-0.0777,-0.0786,-0.0799,-0.0808,-0.0817,-0.0825,-0.083,-0.0836,-0.0835,-0.0837,-0.0827,-0.0835,-0.0835,-0.0836,-0.0838,-0.0831,-0.0832,-0.0825,-0.0825,-0.0825,0,0,-0.0696,-0.0717,-0.0728,-0.075,-0.0761,-0.0769,-0.0777,-0.0791,-0.0799,-0.0807,-0.0827,-0.083,-0.0831,-0.0835,-0.0839,-0.0837,-0.083,-0.0836,-0.0837,-0.0838,-0.0831,-0.0832,-0.0832,-0.0825,-0.0825,-0.0825,0,0,-0.0701,-0.0728,-0.0746,-0.0753,-0.0771,-0.0776,-0.0783,-0.0796,-0.0807,-0.0817,-0.0827,-0.0836,-0.0839,-0.0842,-0.0844,-0.0847,-0.0834,-0.0842,-0.0852,-0.0845,-0.0845,-0.0846,-0.0823,-0.0822,-0.0843,-0.0843,-0.0843,0,-0.0701,-0.0729,-0.0747,-0.0762,-0.0773,-0.0783,-0.0794,-0.08,-0.0814,-0.0822,-0.0826,-0.0838,-0.0841,-0.0851,-0.0854,-0.085,-0.0838,-0.0851,-0.0847,-0.0847,-0.0847,-0.0824,-0.0822,-0.0843,-0.0843,-0.0843,-0.0843,0,-0.0713,-0.0737,-0.0748,-0.0776,-0.0783,-0.0795,-0.0806,-0.0816,-0.0829,-0.0832,-0.0845,-0.0848,-0.0855,-0.0854,-0.0858,-0.086,-0.0848,-0.0849,-0.0847,-0.0849,-0.0824,-0.0822,-0.0845,-0.0844,-0.0844,-0.0844,0,0,-0.0708,-0.0751,-0.0754,-0.0771,-0.0796,-0.08,-0.0818,-0.0831,-0.0845,-0.0849,-0.086,-0.0869,-0.0869,-0.0871,-0.0872,-0.087,-0.0861,-0.0863,-0.0862,-0.0845,-0.0833,-0.076,-0.075,-0.0863,-0.0863,-0.0863,-0.0811,0,-0.0713,-0.0744,-0.0763,-0.0786,-0.0804,-0.0821,-0.0833,-0.0844,-0.0854,-0.0861,-0.0867,-0.0872,-0.0875,-0.0877,-0.0878,-0.0864,-0.0857,-0.0874,-0.083,-0.0828,-0.0766,-0.0746,-0.0863,-0.0809,-0.0809,-0.0808,-0.0808,0,-0.0717,-0.0741,-0.0769,-0.0801,-0.0811,-0.0821,-0.0847,-0.0856,-0.0869,-0.0874,-0.0882,-0.0882,-0.088,-0.0882,-0.086,-0.087,-0.0855,-0.0844,-0.0841,-0.0766,-0.075,-0.0808,-0.0804,-0.0804,-0.0804,-0.0805,-0.0805,0,-0.0703,-0.0743,-0.0768,-0.0779,-0.0815,-0.083,-0.0844,-0.0862,-0.0864,-0.088,-0.0873,-0.0881,-0.0868,-0.0861,-0.0833,-0.0848,-0.0799,-0.0814,-0.0733,-0.0728,-0.0804,-0.0804,-0.0801,-0.0801,-0.0801,-0.0802,-0.0802,0,-0.07,-0.0721,-0.0766,-0.0778,-0.0795,-0.0826,-0.0838,-0.0852,-0.0864,-0.085,-0.0875,-0.0853,-0.0863,-0.0835,-0.0824,-0.0754,-0.0787,-0.0724,-0.0707,-0.0811,-0.0812,-0.0802,-0.0802,-0.08,-0.08,-0.08,-0.0801,0,-0.0678,-0.0713,-0.0738,-0.078,-0.079,-0.0799,-0.0818,-0.0817,-0.084,-0.0821,-0.082,-0.0821,-0.0779,-0.0774,-0.0747,-0.072,-0.0679,-0.0652,-0.0743,-0.0734,-0.0617,-0.0619,-0.0555,-0.0551,-0.0549,-0.0547,-0.0545,0,-0.067,-0.0685,-0.0722,-0.0723,-0.0743,-0.0762,-0.0762,-0.0794,-0.0785,-0.0784,-0.0759,-0.0735,-0.0726,-0.0619,-0.0635,-0.0593,-0.0593,-0.0569,-0.0614,-0.0601,-0.0591,-0.0598,-0.0603,-0.0541,-0.054,-0.0539,-0.0539,0,-0.0644,-0.066,-0.0668,-0.0675,-0.068,-0.0683,-0.069,-0.0677,-0.0698,-0.0725,-0.0666,-0.0636,-0.0585,-0.0561,-0.0525,-0.0506,-0.0584,-0.0542,-0.0548,-0.059,-0.0583,-0.0578,-0.0586,-0.053,-0.0531,-0.0532,-0.0532,0,-0.0611,-0.0598,-0.0606,-0.0601,-0.0607,-0.059,-0.0612,-0.0591,-0.0589,-0.0599,-0.0573,-0.0556,-0.0567,-0.0513,-0.0481,-0.0448,-0.0453,-0.0447,-0.0459,-0.0469,-0.0466,-0.0446,-0.0324,0,0,0,0,0,-0.0565,-0.0534,-0.0528,-0.0514,-0.0521,-0.0524,-0.0547,-0.0571,-0.0597,-0.053,-0.0551,-0.0501,-0.0448,-0.0446,-0.0394,-0.0449,-0.046,-0.0387,-0.0463,-0.0479,-0.049,-0.0495,0,0,0,0,0,0,-0.0528,-0.0512,-0.05,-0.0441,-0.0418,-0.0418,-0.043,-0.0458,-0.0431,-0.0461,-0.0434,-0.0455,-0.0415,-0.0454,-0.0375,-0.0374,-0.0408,-0.0385,-0.0383,-0.0473,-0.0483,-0.0491,-0.05,0,0,0,0,0]},{"header":{"parameterUnit":"m.s-1","parameterCategory":2,"la1":30.2991,"la2":30.254,"lo1":-89.0895,"lo2":-89.0444,"dy":0.0017,"dx":0.0017,"nx":28,"ny":28,"refTime":"2024-07-18T21:00:00:Z","depth":"4","parameterNumber":3,"parameterNumberName":"V-component_of_CURRENTS"},"data":[0,0,0,0,0,0,0,0,0,0,0,0,0,0,0,0,0,0,0,0,0,0,0,0,0,0,0,0,0,0,0,0,0,0,0,0,0,0,0,0,0,0,0,0,0,0,0,0,0,0,0,0,0,0,0,0,0,0,-0.0375,-0.0375,0,-0.0337,-0.0337,-0.0336,-0.032,-0.032,-0.0321,-0.0321,-0.0278,-0.0276,-0.0275,0,0,0,0,0,0,0,0,0,0,0,0,0,-0.0406,-0.0405,-0.0375,-0.0375,-0.0374,-0.0337,-0.0337,-0.0336,-0.032,-0.032,-0.0321,-0.0321,-0.0278,-0.0277,-0.0275,0,0,0,0,0,0,0,0,0,0,0,0,0,-0.0382,-0.0405,-0.0375,-0.0363,-0.0361,-0.0337,-0.0337,-0.0336,-0.032,-0.032,-0.0321,-0.0321,-0.0279,-0.0277,-0.0275,-0.0259,0,0,-0.0269,-0.0268,0,0,0,0,0,0,0,0,-0.0383,-0.0381,-0.0365,-0.0363,-0.0362,-0.0334,-0.0332,-0.031,-0.032,-0.0335,-0.0321,-0.0321,-0.0297,-0.0293,-0.0285,-0.0257,-0.0255,-0.0269,-0.0268,-0.0267,-0.0266,0,0,0,0,0,0,0,-0.0385,-0.0382,-0.0359,-0.0364,-0.0363,-0.0349,-0.0346,-0.0327,-0.0314,-0.0334,-0.0333,-0.033,-0.0296,-0.0286,-0.0283,-0.0254,-0.0269,-0.0267,-0.0266,-0.0265,-0.0222,-0.0222,0,0,0,0,0,0,-0.0392,-0.0384,-0.0361,-0.0358,-0.0374,-0.0349,-0.0345,-0.0342,-0.0315,-0.0311,-0.0329,-0.0329,-0.029,-0.0286,-0.0282,-0.026,-0.0267,-0.0265,-0.0264,-0.0222,-0.0222,-0.0222,0,0,0,0,0,0,-0.0393,-0.0391,-0.0362,-0.0371,-0.0366,-0.0348,-0.0345,-0.0342,-0.0338,-0.0312,-0.0308,-0.0331,-0.029,-0.0285,-0.0264,-0.0259,-0.0264,-0.0262,-0.0222,-0.0222,-0.0222,-0.0218,0,0,0,0,0,0,-0.0394,-0.0391,-0.0393,-0.0371,-0.0366,-0.0357,-0.0345,-0.0341,-0.0336,-0.0335,-0.0311,-0.0307,-0.0289,-0.0266,-0.0262,-0.0256,-0.0261,-0.0222,-0.0222,-0.0222,-0.0218,-0.0218,-0.0218,0,0,0,0,0,-0.0395,-0.0397,-0.0393,-0.039,-0.0369,-0.0358,-0.0354,-0.0341,-0.0336,-0.0338,-0.0314,-0.0308,-0.0264,-0.0265,-0.0259,-0.0253,-0.0222,-0.0222,-0.0222,-0.0218,-0.0218,-0.0218,0,0,0,0,0,0,-0.0409,-0.0395,-0.039,-0.0387,-0.0378,-0.0356,-0.0356,-0.0346,-0.0328,-0.0329,-0.0302,-0.0295,-0.0277,-0.0268,-0.027,-0.0243,-0.0245,-0.0244,-0.0244,-0.0243,-0.0243,-0.0241,-0.0259,0,0,0,0,0,-0.0414,-0.0414,-0.0397,-0.0397,-0.0394,-0.0376,-0.0371,-0.0364,-0.0345,-0.0338,-0.0321,-0.03,-0.0272,-0.026,-0.0243,-0.0224,-0.0217,-0.022,-0.022,-0.0219,-0.0215,-0.0185,-0.0181,-0.0222,-0.0222,-0.0222,0,0,-0.0419,-0.0412,-0.0411,-0.04,-0.0392,-0.0383,-0.0374,-0.0372,-0.036,-0.0336,-0.0319,-0.03,-0.0268,-0.0245,-0.0237,-0.0236,-0.021,-0.022,-0.0219,-0.0215,-0.0184,-0.018,-0.0177,-0.0222,-0.0222,-0.0222,0,0,-0.0426,-0.0425,-0.0424,-0.0418,-0.041,-0.0398,-0.04,-0.0385,-0.0376,-0.0359,-0.0333,-0.0306,-0.0281,-0.0245,-0.0224,-0.0213,-0.0211,-0.0219,-0.0211,-0.0182,-0.0178,-0.0174,-0.0183,-0.018,-0.0217,-0.0217,-0.0217,0,-0.0432,-0.0426,-0.0423,-0.0418,-0.0411,-0.0405,-0.0398,-0.0386,-0.0366,-0.0351,-0.036,-0.0298,-0.0275,-0.0219,-0.0215,-0.021,-0.021,-0.0212,-0.018,-0.0176,-0.0173,-0.0182,-0.0179,-0.0217,-0.0217,-0.0217,-0.0217,0,-0.0431,-0.0428,-0.043,-0.0418,-0.0412,-0.0411,-0.0394,-0.0389,-0.0382,-0.0363,-0.0328,-0.0293,-0.0255,-0.0245,-0.0223,-0.0181,-0.0197,-0.0184,-0.0179,-0.0168,-0.018,-0.0176,-0.0217,-0.0217,-0.0217,-0.0217,0,0,-0.0434,-0.0429,-0.0429,-0.0428,-0.0413,-0.0412,-0.0392,-0.0367,-0.0359,-0.0337,-0.0316,-0.0256,-0.0245,-0.022,-0.0192,-0.0164,-0.0142,-0.0166,-0.0164,-0.0172,-0.0109,-0.0136,-0.0136,-0.0123,-0.0122,-0.0121,-0.0136,0,-0.0432,-0.043,-0.042,-0.0417,-0.0415,-0.0401,-0.0386,-0.0366,-0.0353,-0.0337,-0.0288,-0.0266,-0.0233,-0.0224,-0.0182,-0.0154,-0.013,-0.0141,-0.012,-0.0121,-0.0142,-0.013,-0.0118,-0.0134,-0.0133,-0.0132,-0.0132,0,-0.0427,-0.0428,-0.0426,-0.0422,-0.042,-0.0417,-0.0401,-0.0388,-0.0354,-0.0344,-0.0301,-0.0278,-0.0221,-0.0211,-0.0139,-0.0151,-0.0127,-0.0108,-0.0108,-0.0129,-0.014,-0.0141,-0.0126,-0.0126,-0.0127,-0.0127,-0.0128,0,-0.0437,-0.043,-0.0434,-0.0432,-0.0424,-0.0422,-0.0417,-0.0392,-0.0389,-0.0355,-0.0361,-0.0284,-0.0276,-0.0208,-0.0167,-0.0153,-0.0114,-0.0089,-0.009,-0.0094,-0.0067,-0.007,-0.0037,-0.0037,-0.0037,-0.0037,-0.0037,0,-0.0434,-0.044,-0.0447,-0.0452,-0.0464,-0.0447,-0.0456,-0.0441,-0.0425,-0.0421,-0.0373,-0.0365,-0.0276,-0.0245,-0.0183,-0.014,-0.0123,-0.0089,-0.009,-0.007,-0.0074,-0.0066,-0.007,-0.0038,-0.0037,-0.0037,-0.0037,0,-0.0446,-0.0446,-0.0462,-0.0468,-0.0474,-0.0488,-0.0499,-0.0501,-0.0488,-0.0485,-0.048,-0.0437,-0.039,-0.0319,-0.0237,-0.0187,-0.0128,-0.0119,-0.014,-0.0142,-0.0125,-0.0127,-0.0108,-0.0109,-0.0109,-0.011,-0.011,0,-0.0449,-0.0459,-0.0491,-0.051,-0.0519,-0.0538,-0.0548,-0.0535,-0.0533,-0.0524,-0.0522,-0.0498,-0.0455,-0.0368,-0.0291,-0.0192,-0.0169,-0.0154,-0.009,-0.0124,-0.0127,-0.0129,-0.0131,-0.0112,-0.0112,-0.0112,-0.0112,0,-0.0464,-0.0486,-0.0506,-0.0548,-0.0571,-0.0588,-0.0599,-0.0599,-0.0575,-0.0577,-0.0541,-0.0492,-0.0457,-0.0369,-0.0318,-0.0234,-0.0163,-0.016,-0.0157,-0.0097,-0.0129,-0.0131,-0.0132,-0.0115,-0.0114,-0.0114,-0.0114,0,-0.0489,-0.0515,-0.0551,-0.0582,-0.0613,-0.062,-0.0622,-0.0604,-0.0598,-0.0564,-0.0559,-0.0506,-0.0476,-0.0395,-0.0336,-0.0273,-0.0231,-0.0188,-0.0182,-0.0179,-0.0187,-0.0236,-0.0254,0,0,0,0,0,-0.0513,-0.0546,-0.0579,-0.0612,-0.0636,-0.0647,-0.0644,-0.0634,-0.0612,-0.0578,-0.0558,-0.0509,-0.0423,-0.04,-0.0334,-0.0351,-0.0235,-0.0274,-0.0185,-0.0129,-0.0126,-0.0124,0,0,0,0,0,0,-0.0536,-0.0579,-0.0587,-0.0622,-0.0642,-0.0661,-0.0653,-0.0636,-0.0603,-0.0577,-0.0528,-0.05,-0.0419,-0.046,-0.0338,-0.0324,-0.0259,-0.0238,-0.0236,-0.0131,-0.0128,-0.0125,-0.0122,0,0,0,0,0]}]]